• Em Portugal
  • Lista de países
  • Para 7 dias
  • Temperatura da água
  • Mapas de satélite
  • Mapa do tempo
  • Widgets de tempo
  • user-avatar
    Iniciar Sessão

    Previsão horária em Roslavka

    Hoje, 22 Maio, Terça-feira

    Tempo Temperatura Precipitação Vento Pressão Humidade
    00:00 +15°C° 0 mm 1 m/s 748 mmHg 45%
    01:00 +14°C° 0 mm 1 m/s 748 mmHg 42%
    02:00 +13°C° 0 mm 1 m/s 748 mmHg 40%
    03:00 +13°C° 0 mm 2 m/s 748 mmHg 38%
    04:00 +13°C° 0 mm 2 m/s 748 mmHg 39%
    05:00 +13°C° 0 mm 2 m/s 748 mmHg 41%
    06:00 +13°C° 0 mm 2 m/s 748 mmHg 43%
    07:00 +17°C° 0 mm 2 m/s 747 mmHg 38%
    08:00 +20°C° 0 mm 2 m/s 747 mmHg 33%
    09:00 +24°C° 0 mm 3 m/s 746 mmHg 29%
    10:00 +25°C° 0 mm 3 m/s 746 mmHg 26%
    11:00 +27°C° 0 mm 4 m/s 745 mmHg 24%
    12:00 +28°C° 0 mm 4 m/s 745 mmHg 22%
    13:00 +28°C° 0 mm 5 m/s 744 mmHg 22%
    14:00 +28°C° 0 mm 5 m/s 744 mmHg 22%
    15:00 +28°C° 0 mm 6 m/s 743 mmHg 22%
    16:00 +26°C° 0 mm 5 m/s 743 mmHg 26%
    17:00 +25°C° 0 mm 5 m/s 742 mmHg 30%
    18:00 +22°C° 0 mm 4 m/s 742 mmHg 34%
    19:00 +20°C° 0 mm 3 m/s 742 mmHg 37%
    20:00 +18°C° 0 mm 3 m/s 742 mmHg 41%
    21:00 +15°C° 0 mm 2 m/s 742 mmHg 45%
    22:00 +15°C° 0 mm 2 m/s 741 mmHg 47%
    23:00 +14°C° 0 mm 2 m/s 741 mmHg 49%

    Amanhã, 23 Maio, Quarta-feira

    Tempo Temperatura Precipitação Vento Pressão Humidade
    00:00 +14°C° 0 mm 2 m/s 741 mmHg 52%
    01:00 +14°C° 0,2 mm 2 m/s 740 mmHg 58%
    02:00 +13°C° 0,2 mm 2 m/s 739 mmHg 65%
    03:00 +13°C° 0,2 mm 2 m/s 739 mmHg 71%
    04:00 +13°C° 0,4 mm 2 m/s 738 mmHg 76%
    05:00 +13°C° 0,4 mm 1 m/s 738 mmHg 80%
    06:00 +13°C° 0,4 mm 1 m/s 737 mmHg 85%
    07:00 +13°C° 0,9 mm 1 m/s 736 mmHg 87%
    08:00 +13°C° 0,9 mm 1 m/s 736 mmHg 89%
    09:00 +13°C° 0,9 mm 2 m/s 735 mmHg 91%
    10:00 +12°C° 2,2 mm 2 m/s 735 mmHg 92%
    11:00 +12°C° 2,2 mm 2 m/s 734 mmHg 93%
    12:00 +10°C° 2,2 mm 3 m/s 734 mmHg 94%
    13:00 +10°C° 2,1 mm 3 m/s 734 mmHg 95%
    14:00 +9°C° 2,1 mm 3 m/s 733 mmHg 95%
    15:00 +8°C° 2,1 mm 3 m/s 733 mmHg 96%
    16:00 +8°C° 1,3 mm 3 m/s 733 mmHg 96%
    17:00 +8°C° 1,3 mm 3 m/s 733 mmHg 96%
    18:00 +8°C° 1,3 mm 3 m/s 733 mmHg 96%
    19:00 +8°C° 0,4 mm 3 m/s 734 mmHg 96%
    20:00 +7°C° 0,4 mm 2 m/s 735 mmHg 96%
    21:00 +7°C° 0,4 mm 2 m/s 735 mmHg 96%
    22:00 +6°C° 0 mm 2 m/s 736 mmHg 96%
    23:00 +6°C° 0 mm 2 m/s 736 mmHg 95%

    Depois de amanhã, 24 Maio, Quinta-feira

    Tempo Temperatura Precipitação Vento Pressão Humidade
    00:00 +6°C° 0 mm 2 m/s 736 mmHg 94%
    01:00 +5°C° 0 mm 2 m/s 736 mmHg 94%
    02:00 +5°C° 0 mm 2 m/s 736 mmHg 93%
    03:00 +5°C° 0 mm 2 m/s 736 mmHg 93%
    04:00 +6°C° 0 mm 2 m/s 737 mmHg 92%
    05:00 +6°C° 0 mm 2 m/s 737 mmHg 91%
    06:00 +7°C° 0 mm 2 m/s 737 mmHg 90%
    07:00 +10°C° 0 mm 2 m/s 737 mmHg 77%
    08:00 +13°C° 0 mm 2 m/s 737 mmHg 65%
    09:00 +16°C° 0 mm 3 m/s 737 mmHg 52%
    10:00 +17°C° 0 mm 3 m/s 736 mmHg 48%
    11:00 +18°C° 0 mm 3 m/s 736 mmHg 43%
    12:00 +20°C° 0 mm 3 m/s 736 mmHg 39%
    13:00 +20°C° 0 mm 3 m/s 735 mmHg 39%
    14:00 +20°C° 0 mm 4 m/s 735 mmHg 38%
    15:00 +20°C° 0 mm 4 m/s 735 mmHg 38%
    16:00 +20°C° 0 mm 3 m/s 735 mmHg 44%
    17:00 +20°C° 0 mm 2 m/s 735 mmHg 49%
    18:00 +20°C° 0 mm 1 m/s 735 mmHg 55%
    19:00 +18°C° 0,3 mm 1 m/s 735 mmHg 64%
    20:00 +14°C° 0,3 mm 2 m/s 735 mmHg 74%
    21:00 +12°C° 0,3 mm 2 m/s 736 mmHg 83%
    22:00 +10°C° 0,3 mm 2 m/s 736 mmHg 86%
    23:00 +11°C° 0,3 mm 1 m/s 735 mmHg 88%

    25 Maio, Sexta-feira

    Tempo Temperatura Precipitação Vento Pressão Humidade
    00:00 +10°C° 0,3 mm 1 m/s 735 mmHg 91%
    01:00 +10°C° 0,4 mm 1 m/s 735 mmHg 91%
    02:00 +10°C° 0,4 mm 1 m/s 735 mmHg 92%
    03:00 +9°C° 0,4 mm 1 m/s 735 mmHg 92%
    04:00 +10°C° 0 mm 1 m/s 735 mmHg 91%
    05:00 +11°C° 0 mm 1 m/s 736 mmHg 90%
    06:00 +10°C° 0 mm 0 m/s 736 mmHg 88%
    07:00 +13°C° 0,1 mm 1 m/s 736 mmHg 80%
    08:00 +15°C° 0,1 mm 2 m/s 736 mmHg 73%
    09:00 +16°C° 0,1 mm 2 m/s 737 mmHg 65%
    10:00 +17°C° 0,2 mm 3 m/s 737 mmHg 61%
    11:00 +18°C° 0,2 mm 4 m/s 737 mmHg 57%
    12:00 +19°C° 0,2 mm 4 m/s 737 mmHg 53%
    13:00 +17°C° 0,4 mm 5 m/s 737 mmHg 55%
    14:00 +17°C° 0,4 mm 5 m/s 737 mmHg 58%
    15:00 +17°C° 0,4 mm 5 m/s 737 mmHg 61%
    16:00 +17°C° 0,1 mm 4 m/s 738 mmHg 64%
    17:00 +17°C° 0,1 mm 4 m/s 738 mmHg 66%
    18:00 +16°C° 0,1 mm 3 m/s 739 mmHg 69%
    19:00 +14°C° 0 mm 2 m/s 740 mmHg 76%
    20:00 +12°C° 0 mm 2 m/s 740 mmHg 84%
    21:00 +10°C° 0 mm 1 m/s 741 mmHg 91%
    22:00 +10°C° 0 mm 1 m/s 741 mmHg 92%
    23:00 +10°C° 0 mm 1 m/s 742 mmHg 94%

    26 Maio, Sábado

    Tempo Temperatura Precipitação Vento Pressão Humidade
    00:00 +9°C° 0 mm 1 m/s 742 mmHg 95%
    01:00 +8°C° 0 mm 0 m/s 742 mmHg 95%
    02:00 +7°C° 0 mm 0 m/s 743 mmHg 96%
    03:00 +7°C° 0 mm 0 m/s 743 mmHg 96%
    04:00 +8°C° 0 mm 0 m/s 743 mmHg 95%
    05:00 +8°C° 0 mm 0 m/s 744 mmHg 94%
    06:00 +9°C° 0 mm 0 m/s 744 mmHg 93%
    07:00 +12°C° 0 mm 1 m/s 745 mmHg 85%
    08:00 +14°C° 0 mm 1 m/s 745 mmHg 77%
    09:00 +16°C° 0 mm 1 m/s 745 mmHg 69%
    10:00 +19°C° 0 mm 1 m/s 745 mmHg 63%
    11:00 +20°C° 0 mm 1 m/s 745 mmHg 57%
    12:00 +21°C° 0 mm 2 m/s 745 mmHg 51%
    13:00 +21°C° 0 mm 2 m/s 745 mmHg 49%
    14:00 +21°C° 0 mm 2 m/s 745 mmHg 48%
    15:00 +21°C° 0 mm 2 m/s 745 mmHg 47%
    16:00 +21°C° 0 mm 2 m/s 745 mmHg 51%
    17:00 +20°C° 0 mm 2 m/s 745 mmHg 55%
    18:00 +21°C° 0 mm 1 m/s 745 mmHg 59%
    19:00 +18°C° 0 mm 1 m/s 746 mmHg 67%
    20:00 +15°C° 0 mm 1 m/s 746 mmHg 76%
    21:00 +12°C° 0 mm 0 m/s 746 mmHg 84%
    22:00 +12°C° 0 mm 1 m/s 747 mmHg 86%
    23:00 +11°C° 0 mm 1 m/s 747 mmHg 88%

    27 Maio, Domingo

    Tempo Temperatura Precipitação Vento Pressão Humidade
    00:00 +11°C° 0 mm 1 m/s 747 mmHg 90%
    01:00 +11°C° 0 mm 1 m/s 747 mmHg 91%
    02:00 +10°C° 0 mm 1 m/s 747 mmHg 93%
    03:00 +10°C° 0 mm 1 m/s 747 mmHg 94%
    04:00 +10°C° 0 mm 1 m/s 747 mmHg 92%
    05:00 +11°C° 0 mm 1 m/s 747 mmHg 89%
    06:00 +12°C° 0 mm 1 m/s 747 mmHg 87%
    07:00 +13°C° 0 mm 1 m/s 747 mmHg 82%
    08:00 +15°C° 0 mm 1 m/s 747 mmHg 77%
    09:00 +16°C° 0 mm 1 m/s 747 mmHg 72%
    10:00 +16°C° 0,2 mm 1 m/s 747 mmHg 74%
    11:00 +16°C° 0,2 mm 1 m/s 747 mmHg 76%
    12:00 +16°C° 0,2 mm 1 m/s 746 mmHg 78%
    13:00 +16°C° 0,3 mm 1 m/s 746 mmHg 81%
    14:00 +16°C° 0,3 mm 1 m/s 746 mmHg 83%
    15:00 +16°C° 0,3 mm 1 m/s 746 mmHg 85%
    16:00 +16°C° 0,1 mm 1 m/s 746 mmHg 85%
    17:00 +16°C° 0,1 mm 1 m/s 746 mmHg 84%
    18:00 +16°C° 0,1 mm 1 m/s 746 mmHg 84%
    19:00 +15°C° 0 mm 1 m/s 746 mmHg 87%
    20:00 +14°C° 0 mm 1 m/s 746 mmHg 90%
    21:00 +12°C° 0 mm 1 m/s 746 mmHg 93%
    22:00 +12°C° 0 mm 1 m/s 746 mmHg 93%
    23:00 +11°C° 0 mm 1 m/s 746 mmHg 93%
    Mostrar mais